This demonstration page uses our WeatherBlox Daily Observations layout. Learn more.

Left ArrowRight Arrow

Hourly Observations for December 30, 2019

Temp ( °F °C ) Dew Point ( °F °C ) Humidity (%) Winds ( mph kmh ) Pressure ( in mb ) Visibility ( mi km ) Precip ( " mm )
12:02 am 00:02 Cloudy with Mist and Fog 43 6.1 41 5 93 93 Calm 30.15 1021 3 5 0.00 0.00
12:35 am 00:35 Mostly Clear with Mist and Fog 42 5.6 40 4.4 92 92 Calm 30.15 1021 2 3 0.00 0.00
12:49 am 00:49 Clear with Mist and Fog 39 4 37 3 93 93 Calm 30.15 1021 3 4 0.00 0.00
12:53 am 00:53 Clear with Mist and Fog 40 4.4 38 3.3 93 93 Calm 30.13 1020 3 4 0.00 0.00
1:23 am 01:23 Clear with Mist and Fog 40 4.4 38 3.3 93 93 NW 3 6 30.15 1021 2 3 0.00 0.00
1:31 am 01:31 Clear with Mist and Fog 41 5 39 3.9 93 93 NW 5 7 30.15 1021 3 5 0.00 0.00
1:53 am 01:53 Clear with Mist and Fog 39 3.9 37 2.8 93 93 N 5 7 30.14 1021 3 4 0.00 0.00
2:02 am 02:02 Clear with Mist and Fog 40 4.4 38 3.3 93 93 NNW 3 6 30.16 1021 5 8 0.00 0.00
2:53 am 02:53 Clear with Mist and Fog 39 3.9 37 2.8 93 93 N 5 7 30.15 1021 4 6 0.00 0.00
3:53 am 03:53 Clear with Mist and Fog 38 3.3 36 2.2 93 93 Calm 30.14 1021 4 6 0.00 0.00
4:53 am 04:53 Clear 42 5.6 38 3.3 85 85 NW 5 7 30.12 1020 10 16 0.00 0.00
5:53 am 05:53 Clear 42 5.6 38 3.3 85 85 NNW 3 6 30.14 1021 10 16 0.00 0.00
6:53 am 06:53 Clear 45 7.2 37 2.8 74 74 NNW 9 15 30.14 1021 10 16 0.00 0.00
7:53 am 07:53 Sunny 45 7.2 37 2.8 74 74 NNW 6 9 30.14 1021 10 16 0.00 0.00
8:53 am 08:53 Sunny 49 9.4 38 3.3 66 66 NNW 6 9 30.16 1021 10 16 0.00 0.00
9:53 am 09:53 Sunny 55 12.8 38 3.3 53 53 N 13 20 30.17 1022 10 16 0.00 0.00
10:53 am 10:53 Sunny 58 14.4 38 3.3 48 48 N 14 22 30.16 1021 10 16 0.00 0.00
11:53 am 11:53 Sunny 60 15.6 38 3.3 44 44 NNW 12 19 30.15 1021 10 16 0.00 0.00
12:53 pm 12:53 Sunny 62 16.7 38 3.3 41 41 NNW 10 17 30.12 1020 10 16 0.00 0.00
1:53 pm 13:53 Sunny 64 17.8 37 2.8 37 37 NNE 18 30 30.11 1020 10 16 0.00 0.00
2:53 pm 14:53 Sunny 65 18.3 38 3.3 37 37 N 14 22 30.10 1019 10 16 0.00 0.00
3:53 pm 15:53 Sunny 64 17.8 37 2.8 37 37 NNW 12 19 30.12 1020 10 16 0.00 0.00
4:53 pm 16:53 Clear 61 16.1 37 2.8 41 41 N 7 11 30.13 1020 10 16 0.00 0.00
5:53 pm 17:53 Clear 59 15 37 2.8 44 44 N 8 13 30.15 1021 10 16 0.00 0.00
6:53 pm 18:53 Clear 58 14.4 36 2.2 44 44 N 16 26 30.16 1021 10 16 0.00 0.00
7:53 pm 19:53 Clear 58 14.4 35 1.7 42 42 N 15 24 30.17 1022 10 16 0.00 0.00
8:53 pm 20:53 Clear 57 13.9 34 1.1 42 42 N 13 20 30.18 1022 10 16 0.00 0.00
9:53 pm 21:53 Clear 56 13.3 34 1.1 44 44 N 12 19 30.19 1022 10 16 0.00 0.00
10:53 pm 22:53 Clear 55 12.8 34 1.1 45 45 NNW 8 13 30.20 1023 10 16 0.00 0.00
11:53 pm 23:53 Clear 56 13.3 34 1.1 44 44 N 7 11 30.19 1022 10 16 0.00 0.00

Powered by AerisWeather